• în România
  • Lista ţărilor
  • Pe 7 zile
  • Temperatura apei
  • Hartă satelitară
  • Meteo pe hartă
  • Widget-uri
  • user-avatar
    Intrare

    Meteo pe oră la Zubchaninovka

    Astăzi, 23 Octombrie, Marţi

    Timp Temperatura Precipitaţii Vânt Presiune Umiditate
    00:00 +4°C° 0 mm 3 m/s 763 mmHg 65%
    01:00 +4°C° 0 mm 3 m/s 762 mmHg 64%
    02:00 +4°C° 0 mm 3 m/s 762 mmHg 64%
    03:00 +4°C° 0 mm 4 m/s 761 mmHg 63%
    04:00 +5°C° 0 mm 4 m/s 761 mmHg 62%
    05:00 +5°C° 0 mm 4 m/s 760 mmHg 61%
    06:00 +5°C° 0 mm 4 m/s 760 mmHg 60%
    07:00 +6°C° 0 mm 4 m/s 759 mmHg 58%
    08:00 +6°C° 0 mm 5 m/s 759 mmHg 55%
    09:00 +7°C° 0 mm 5 m/s 759 mmHg 53%
    10:00 +7°C° 0.1 mm 5 m/s 758 mmHg 51%
    11:00 +8°C° 0.1 mm 5 m/s 758 mmHg 49%
    12:00 +8°C° 0.1 mm 5 m/s 757 mmHg 48%
    13:00 +8°C° 0.1 mm 5 m/s 756 mmHg 48%
    14:00 +8°C° 0.1 mm 5 m/s 756 mmHg 49%
    15:00 +8°C° 0.1 mm 5 m/s 755 mmHg 49%
    16:00 +8°C° 0.1 mm 5 m/s 754 mmHg 51%
    17:00 +8°C° 0.1 mm 5 m/s 754 mmHg 54%
    18:00 +8°C° 0.1 mm 5 m/s 753 mmHg 56%
    19:00 +8°C° 0.1 mm 5 m/s 753 mmHg 58%
    20:00 +8°C° 0.1 mm 5 m/s 752 mmHg 59%
    21:00 +9°C° 0.1 mm 5 m/s 751 mmHg 61%
    22:00 +9°C° 0 mm 5 m/s 751 mmHg 62%
    23:00 +10°C° 0 mm 4 m/s 750 mmHg 63%

    Mâine, 24 Octombrie, Miercuri

    Timp Temperatura Precipitaţii Vânt Presiune Umiditate
    00:00 +10°C° 0 mm 4 m/s 750 mmHg 64%
    01:00 +10°C° 0 mm 4 m/s 750 mmHg 68%
    02:00 +8°C° 0 mm 4 m/s 749 mmHg 72%
    03:00 +9°C° 0 mm 3 m/s 749 mmHg 76%
    04:00 +9°C° 0 mm 3 m/s 749 mmHg 79%
    05:00 +9°C° 0 mm 3 m/s 748 mmHg 82%
    06:00 +8°C° 0 mm 4 m/s 748 mmHg 86%
    07:00 +8°C° 0 mm 4 m/s 748 mmHg 85%
    08:00 +10°C° 0 mm 4 m/s 748 mmHg 84%
    09:00 +10°C° 0 mm 5 m/s 748 mmHg 84%
    10:00 +10°C° 0 mm 5 m/s 747 mmHg 77%
    11:00 +11°C° 0 mm 6 m/s 747 mmHg 70%
    12:00 +13°C° 0 mm 6 m/s 747 mmHg 64%
    13:00 +13°C° 0 mm 6 m/s 747 mmHg 60%
    14:00 +13°C° 0 mm 5 m/s 747 mmHg 57%
    15:00 +13°C° 0 mm 5 m/s 747 mmHg 54%
    16:00 +12°C° 0 mm 4 m/s 747 mmHg 56%
    17:00 +11°C° 0 mm 4 m/s 747 mmHg 59%
    18:00 +10°C° 0 mm 4 m/s 747 mmHg 62%
    19:00 +10°C° 0 mm 4 m/s 747 mmHg 63%
    20:00 +10°C° 0 mm 4 m/s 747 mmHg 65%
    21:00 +10°C° 0 mm 4 m/s 747 mmHg 66%
    22:00 +9°C° 0 mm 5 m/s 746 mmHg 67%
    23:00 +9°C° 0 mm 5 m/s 746 mmHg 67%

    Poimâine, 25 Octombrie, Joi

    Timp Temperatura Precipitaţii Vânt Presiune Umiditate
    00:00 +9°C° 0 mm 5 m/s 746 mmHg 67%
    01:00 +10°C° 0.2 mm 6 m/s 746 mmHg 69%
    02:00 +10°C° 0.2 mm 6 m/s 746 mmHg 71%
    03:00 +10°C° 0.2 mm 6 m/s 746 mmHg 73%
    04:00 +10°C° 0.8 mm 6 m/s 745 mmHg 75%
    05:00 +10°C° 0.8 mm 6 m/s 745 mmHg 77%
    06:00 +10°C° 0.8 mm 6 m/s 745 mmHg 80%
    07:00 +10°C° 0.5 mm 7 m/s 744 mmHg 78%
    08:00 +11°C° 0.5 mm 7 m/s 744 mmHg 75%
    09:00 +11°C° 0.5 mm 8 m/s 744 mmHg 73%
    10:00 +11°C° 0.5 mm 7 m/s 743 mmHg 72%
    11:00 +11°C° 0.5 mm 7 m/s 743 mmHg 71%
    12:00 +12°C° 0.5 mm 7 m/s 742 mmHg 69%
    13:00 +14°C° 0 mm 7 m/s 742 mmHg 64%
    14:00 +15°C° 0 mm 7 m/s 741 mmHg 60%
    15:00 +16°C° 0 mm 7 m/s 741 mmHg 55%
    16:00 +15°C° 0 mm 6 m/s 740 mmHg 57%
    17:00 +15°C° 0 mm 6 m/s 740 mmHg 60%
    18:00 +15°C° 0 mm 5 m/s 740 mmHg 63%
    19:00 +14°C° 0.1 mm 5 m/s 740 mmHg 67%
    20:00 +14°C° 0.1 mm 5 m/s 740 mmHg 72%
    21:00 +13°C° 0.1 mm 5 m/s 740 mmHg 76%
    22:00 +12°C° 0.5 mm 4 m/s 741 mmHg 74%
    23:00 +11°C° 0.5 mm 4 m/s 741 mmHg 73%

    26 Octombrie, Vineri

    Timp Temperatura Precipitaţii Vânt Presiune Umiditate
    00:00 +8°C° 0.5 mm 4 m/s 741 mmHg 71%
    01:00 +9°C° 0.8 mm 3 m/s 742 mmHg 72%
    02:00 +8°C° 0.8 mm 3 m/s 742 mmHg 73%
    03:00 +8°C° 0.8 mm 2 m/s 742 mmHg 74%
    04:00 +8°C° 0.2 mm 3 m/s 742 mmHg 75%
    05:00 +7°C° 0.2 mm 3 m/s 743 mmHg 75%
    06:00 +7°C° 0.2 mm 3 m/s 743 mmHg 75%
    07:00 +6°C° 0 mm 4 m/s 744 mmHg 73%
    08:00 +7°C° 0 mm 4 m/s 744 mmHg 71%
    09:00 +7°C° 0 mm 5 m/s 745 mmHg 69%
    10:00 +7°C° 0 mm 5 m/s 745 mmHg 67%
    11:00 +8°C° 0 mm 5 m/s 745 mmHg 64%
    12:00 +8°C° 0 mm 6 m/s 746 mmHg 62%
    13:00 +8°C° 0 mm 5 m/s 746 mmHg 62%
    14:00 +8°C° 0 mm 5 m/s 746 mmHg 62%
    15:00 +8°C° 0 mm 5 m/s 747 mmHg 62%
    16:00 +7°C° 0 mm 5 m/s 747 mmHg 64%
    17:00 +6°C° 0 mm 4 m/s 748 mmHg 66%
    18:00 +6°C° 0 mm 4 m/s 748 mmHg 68%
    19:00 +5°C° 0 mm 4 m/s 749 mmHg 71%
    20:00 +5°C° 0 mm 3 m/s 749 mmHg 73%
    21:00 +4°C° 0 mm 3 m/s 749 mmHg 75%
    22:00 +4°C° 0 mm 3 m/s 750 mmHg 76%
    23:00 +3°C° 0 mm 3 m/s 750 mmHg 77%

    27 Octombrie, Sâmbătă

    Timp Temperatura Precipitaţii Vânt Presiune Umiditate
    00:00 +3°C° 0 mm 3 m/s 750 mmHg 78%
    01:00 +2°C° 0 mm 3 m/s 751 mmHg 79%
    02:00 +2°C° 0 mm 3 m/s 751 mmHg 79%
    03:00 +2°C° 0 mm 3 m/s 752 mmHg 80%
    04:00 +1°C° 0 mm 3 m/s 752 mmHg 81%
    05:00 +1°C° 0 mm 3 m/s 752 mmHg 82%
    06:00 +1°C° 0 mm 3 m/s 753 mmHg 83%
    07:00 +1°C° 0 mm 3 m/s 753 mmHg 79%
    08:00 +1°C° 0 mm 4 m/s 754 mmHg 75%
    09:00 +3°C° 0 mm 4 m/s 754 mmHg 71%
    10:00 +3°C° 0 mm 4 m/s 754 mmHg 68%
    11:00 +3°C° 0 mm 5 m/s 754 mmHg 65%
    12:00 +5°C° 0 mm 5 m/s 755 mmHg 62%
    13:00 +5°C° 0 mm 5 m/s 755 mmHg 63%
    14:00 +5°C° 0 mm 5 m/s 755 mmHg 64%
    15:00 +5°C° 0 mm 5 m/s 756 mmHg 64%
    16:00 +4°C° 0 mm 4 m/s 756 mmHg 68%
    17:00 +3°C° 0 mm 4 m/s 757 mmHg 71%
    18:00 +3°C° 0 mm 3 m/s 758 mmHg 74%
    19:00 +3°C° 0 mm 3 m/s 758 mmHg 74%
    20:00 +2°C° 0 mm 3 m/s 759 mmHg 74%
    21:00 +2°C° 0 mm 3 m/s 759 mmHg 74%
    22:00 +2°C° 0 mm 3 m/s 760 mmHg 76%
    23:00 +2°C° 0 mm 3 m/s 760 mmHg 77%

    28 Octombrie, Duminică

    Timp Temperatura Precipitaţii Vânt Presiune Umiditate
    00:00 +1°C° 0 mm 3 m/s 760 mmHg 79%
    01:00 +1°C° 0 mm 3 m/s 761 mmHg 80%
    02:00 +1°C° 0 mm 3 m/s 761 mmHg 81%
    03:00 +1°C° 0 mm 3 m/s 761 mmHg 82%
    04:00 0°C° 0 mm 4 m/s 762 mmHg 83%
    05:00 0°C° 0 mm 4 m/s 762 mmHg 84%
    06:00 0°C° 0 mm 4 m/s 762 mmHg 85%
    07:00 +1°C° 0 mm 5 m/s 762 mmHg 81%
    08:00 +2°C° 0 mm 6 m/s 762 mmHg 77%
    09:00 +4°C° 0 mm 6 m/s 762 mmHg 73%
    10:00 +5°C° 0 mm 7 m/s 761 mmHg 70%
    11:00 +6°C° 0 mm 8 m/s 761 mmHg 66%
    12:00 +9°C° 0 mm 8 m/s 761 mmHg 62%
    13:00 +9°C° 0 mm 8 m/s 761 mmHg 64%
    14:00 +9°C° 0 mm 8 m/s 761 mmHg 67%
    15:00 +9°C° 0 mm 8 m/s 760 mmHg 69%
    16:00 +9°C° 0.1 mm 8 m/s 760 mmHg 69%
    17:00 +9°C° 0.1 mm 8 m/s 761 mmHg 69%
    18:00 +9°C° 0.1 mm 8 m/s 761 mmHg 69%
    19:00 +9°C° 0.1 mm 8 m/s 761 mmHg 68%
    20:00 +9°C° 0.1 mm 8 m/s 761 mmHg 67%
    21:00 +9°C° 0.1 mm 8 m/s 761 mmHg 66%
    22:00 +9°C° 0 mm 8 m/s 761 mmHg 68%
    23:00 +9°C° 0 mm 8 m/s 761 mmHg 70%

    29 Octombrie, Luni

    Timp Temperatura Precipitaţii Vânt Presiune Umiditate
    00:00 +9°C° 0 mm 8 m/s 761 mmHg 71%
    01:00 +9°C° 0 mm 8 m/s 761 mmHg 71%
    02:00 +9°C° 0 mm 8 m/s 761 mmHg 71%
    03:00 +9°C° 0 mm 8 m/s 761 mmHg 71%
    04:00 +7°C° 0 mm 8 m/s 761 mmHg 68%
    05:00 +7°C° 0 mm 8 m/s 761 mmHg 65%
    06:00 +7°C° 0 mm 8 m/s 761 mmHg 61%
    07:00 +9°C° 0 mm 8 m/s 761 mmHg 64%
    08:00 +8°C° 0 mm 9 m/s 761 mmHg 66%
    09:00 +10°C° 0 mm 9 m/s 761 mmHg 68%
    10:00 +11°C° 0 mm 9 m/s 761 mmHg 67%
    11:00 +12°C° 0 mm 9 m/s 761 mmHg 65%
    12:00 +13°C° 0 mm 9 m/s 761 mmHg 64%
    13:00 +13°C° 0 mm 9 m/s 762 mmHg 65%
    14:00 +13°C° 0 mm 9 m/s 762 mmHg 66%
    15:00 +13°C° 0 mm 8 m/s 762 mmHg 67%
    16:00 +13°C° 0 mm 8 m/s 762 mmHg 70%
    17:00 +12°C° 0 mm 7 m/s 763 mmHg 72%
    18:00 +12°C° 0 mm 7 m/s 763 mmHg 75%
    19:00 +13°C° 0 mm 6 m/s 763 mmHg 77%
    20:00 +11°C° 0 mm 6 m/s 763 mmHg 79%
    21:00 +12°C° 0 mm 5 m/s 764 mmHg 81%
    22:00 +12°C° 0.1 mm 4 m/s 764 mmHg 82%
    23:00 +12°C° 0.1 mm 4 m/s 764 mmHg 84%
    Arată mai mult